Satellite-Ground Cal/Val Region Overpasses Predictions

Prediction of Satellite NPP Overpassing Cal/Val Region: PacNW

Region Location: (Latitude: 10.00, Longitude: 139.50) to (Latitude: 22.70, Longitude: 165.60).

Table of predicted overpasses for the next 14.0 days since TLE Epoch: 3/11/2023
Interval Starting Time Starting Location Ending Time Ending Location
1 03/11/2023 02:47:38 ( 10.49, 158.26) 03/11/2023 02:51:06 ( 22.69, 155.34)
2 03/11/2023 15:19:24 ( 22.70, 155.62) 03/11/2023 15:23:00 ( 10.02, 152.60)
3 03/12/2023 02:28:29 ( 10.00, 163.13) 03/12/2023 02:32:05 ( 22.68, 160.10)
4 03/12/2023 15:00:24 ( 22.65, 160.37) 03/12/2023 15:03:59 ( 10.03, 157.36)
5 03/13/2023 02:12:14 ( 19.68, 165.60) 03/13/2023 02:13:05 ( 22.67, 164.86)
6 03/13/2023 03:51:00 ( 10.05, 142.49) 03/13/2023 03:54:33 ( 22.55, 139.51)
7 03/13/2023 14:41:24 ( 22.66, 165.12) 03/13/2023 14:44:59 ( 10.04, 162.11)
8 03/13/2023 16:22:54 ( 22.66, 139.75) 03/13/2023 16:23:10 ( 21.72, 139.51)
9 03/14/2023 03:31:59 ( 10.04, 147.25) 03/14/2023 03:35:34 ( 22.66, 144.24)
10 03/14/2023 16:03:53 ( 22.66, 144.50) 03/14/2023 16:07:28 ( 10.04, 141.49)
11 03/15/2023 03:12:59 ( 10.04, 152.01) 03/15/2023 03:16:34 ( 22.66, 149.00)
12 03/15/2023 15:44:53 ( 22.67, 149.26) 03/15/2023 15:48:28 ( 10.05, 146.25)
13 03/16/2023 02:53:58 ( 10.04, 156.76) 03/16/2023 02:57:33 ( 22.66, 153.75)
14 03/16/2023 15:25:52 ( 22.67, 154.02) 03/16/2023 15:29:27 ( 10.05, 151.01)
15 03/17/2023 02:34:58 ( 10.04, 161.52) 03/17/2023 02:38:33 ( 22.66, 158.51)
16 03/17/2023 15:06:52 ( 22.67, 158.77) 03/17/2023 15:10:27 ( 10.05, 155.76)
17 03/18/2023 02:16:47 ( 12.98, 165.60) 03/18/2023 02:19:32 ( 22.66, 163.26)
18 03/18/2023 03:57:27 ( 10.04, 140.90) 03/18/2023 03:59:09 ( 16.03, 139.50)
19 03/18/2023 14:47:51 ( 22.66, 163.53) 03/18/2023 14:51:26 ( 10.04, 160.52)
20 03/19/2023 03:38:27 ( 10.05, 145.65) 03/19/2023 03:42:02 ( 22.67, 142.64)
21 03/19/2023 14:32:02 ( 11.45, 165.59) 03/19/2023 14:32:26 ( 10.04, 165.27)
22 03/19/2023 16:10:21 ( 22.65, 142.90) 03/19/2023 16:13:56 ( 10.03, 139.90)
23 03/20/2023 03:19:27 ( 10.05, 150.41) 03/20/2023 03:23:02 ( 22.68, 147.40)
24 03/20/2023 15:51:20 ( 22.64, 147.66) 03/20/2023 15:54:55 ( 10.03, 144.65)
25 03/21/2023 03:00:25 ( 10.01, 155.17) 03/21/2023 03:04:01 ( 22.69, 152.15)
26 03/21/2023 15:32:19 ( 22.69, 152.43) 03/21/2023 15:35:55 ( 10.01, 149.40)
27 03/22/2023 02:41:25 ( 10.02, 159.93) 03/22/2023 02:45:01 ( 22.70, 156.90)
28 03/22/2023 15:13:18 ( 22.68, 157.18) 03/22/2023 15:16:53 ( 10.06, 154.17)
29 03/23/2023 02:22:24 ( 10.04, 164.68) 03/23/2023 02:25:59 ( 22.66, 161.67)
30 03/23/2023 14:54:18 ( 22.66, 161.93) 03/23/2023 14:57:53 ( 10.04, 158.92)
31 03/24/2023 03:44:54 ( 10.06, 144.06) 03/24/2023 03:48:29 ( 22.68, 141.05)
32 03/24/2023 14:36:33 ( 18.18, 165.59) 03/24/2023 14:38:52 ( 10.02, 163.67)
